Track IRIDIUM 129 now! 10-day predictions IRIDIUM 129 is classified as:
1 42958U 17061D 25024.68544434 .00000403 00000-0 13679-3 0 9990 2 42958 86.3944 237.7046 0001660 82.0212 278.1172 14.34218694381913